Regional Weather Roundup
Issued by NWS Binghamton, NY

Home | Current Version | Previous Version | Text Only | Print | Product List | Glossary On
Versions: 1 2 3 4 5 6 7 8 9 10 11 12 13 14 15 16 17 18 19 20 21 22 23 24 25 26 27 28 29 30 31 32 33 34 35 36 37 38 39 40 41 42 43 44 45 46 47 48 49 50
000
ASUS41 KBGM 171310
RWRBGM

REGIONAL WEATHER ROUNDUP
NATIONAL WEATHER SERVICE BINGHAMTON NY
800 AM EST WED JAN 17 2018

Note: "fair" indicates few or no clouds below 12,000 feet with no
significant weather and/or obstructions to visibility.

* = Station(s) that does not report precipitation, such as rain,
snow, etc, also no thunder or fog.

NYZ009-015>018-022>025-036-037-044>046-055>057-062-171400
...Central New York...

CITY           SKY/WX    TMP DP  RH WIND       PRES   REMARKS
Binghamton     LGT SNOW  14  11  87 NW8       30.27R FOG     WCI   3
Cortland       LGT SNOW  14  12  92 CALM      30.33R
Dansville      FAIR       1  -4  79 CALM      30.40F
Elmira         FAIR      12   5  73 W3        30.37R
Seneca Falls   CLOUDY    16   7  67 W8        30.41S WCI   5
Ithaca         FLURRIES  14   8  77 W10       30.35R WCI   1
Hornell        CLEAR     -8 -11  84 CALM      30.40S FOG
Monticello     LGT SNOW  26  25  96 W6        30.23S FOG     WCI  19
Oneonta        LGT SNOW  21  19  93 N3        30.21S
Penn Yan       CLOUDY    11   1  64 SW8       30.36S WCI  -1
Rome           CLOUDY    18  14  84 W14       30.36S WCI   4
Sidney         CLOUDY    25  25 100 N5        30.28R WCI  19
Syracuse       LGT SNOW  16  13  88 W12       30.39R FOG     WCI   3
$$

PAZ038>040-043-044-047-048-072-171400
...Northeast Pennsylvania...

CITY           SKY/WX    TMP DP  RH WIND       PRES   REMARKS
Hazleton       LGT SNOW  19  16  86 W5        30.28F WCI  13
Scranton       LGT SNOW  21  20  96 SW7       30.29S FOG     WCI  12
$$
&&
KEY
WCI = Wind Chill Index
VSB = Visibility
HX  = Heat Index
$$



USA.gov is the U.S. government's official web portal to all federal, state and local government web resources and services.